Regional Weather Roundup
Issued by NWS

Home | Current Version | Previous Version | Text Only | Print | Product List | Glossary On
Versions: 1 2 3 4 5 6 7 8 9 10 11 12 13 14 15 16 17 18 19 20 21 22 23 24 25 26 27 28 29 30 31 32 33 34 35 36 37 38 39 40 41 42 43 44 45 46 47 48 49 50
000
ASUS43 KTOP 210308
RWRKS

WEATHER ROUNDUP FOR KANSAS
NATIONAL WEATHER SERVICE GOODLAND KS
1000 PM CDT SUN APR 20 2014

NOTE:  "FAIR" INDICATES FEW OR NO CLOUDS BELOW 12,000 FEET WITH NO
SIGNIFICANT WEATHER AND/OR OBSTRUCTIONS TO VISIBILITY.

KSZ001>006-013>018-027>032-041>047-210400-
NORTHWEST KANSAS

CITY           SKY/WX    TMP DP  RH WIND       PRES   REMARKS
GOODLAND       PTCLDY    55  44  66 CALM      29.98R
HAYS           CLOUDY    66  54  63 S15       29.95R
HILL CITY      LGT RAIN  59  53  80 SE10      29.96S
RUSSELL        CLOUDY    66  56  70 S15       29.93R
$$

KSZ061>065-074>080-084>089-210400-
SOUTHWEST KANSAS

CITY           SKY/WX    TMP DP  RH WIND       PRES   REMARKS
DODGE CITY     CLOUDY    57  49  74 S8        29.97R
ELKHART          N/A     59  47  64 SW1         N/A
GARDEN CITY    CLOUDY    60  48  64 S12       29.96R
GREAT BEND     PTCLDY    64  54  68 S18       29.94S
LIBERAL        MOCLDY    55  45  67 S9        29.98S
PRATT          CLOUDY    63  52  67 S18G25    29.99R
$$

KSZ066>073-081>083-090>101-210400-
SOUTHEAST KANSAS

CITY           SKY/WX    TMP DP  RH WIND       PRES   REMARKS
CHANUTE        CLOUDY    65  54  67 SE8       30.02R
COFFEYVILLE    CLOUDY    68  55  63 S9        30.02S
HUTCHINSON     PTCLDY    65  54  67 S13       29.97R
MEDICINE LODGE   N/A     65  54  67 S9        29.98R
NEWTON         PTCLDY    64  52  63 S12       30.02R
PARSONS        CLOUDY    68  54  60 S9        30.03R
WICHITA INTL   MOCLDY    65  54  67 S13       29.98S
WICHITA JABRA  PTCLDY    66  55  67 S12       29.98S
WICHITA MCCONL PTCLDY    65  59  80 S13       29.99S
WINFIELD       MOCLDY    64  54  69 S13       30.01S
$$

KSZ007>012-019>026-033>040-048>060-102>105-210400-
NORTHEAST KANSAS

CITY           SKY/WX    TMP DP  RH WIND       PRES   REMARKS
CONCORDIA      CLOUDY    64  56  75 S6        29.99R
EMPORIA        CLOUDY    63  54  72 SE6       30.00R
LAWRENCE       CLOUDY    66  55  67 E5        30.02R
MANHATTAN      CLOUDY    65  58  78 CALM      29.99R
OLATHE IND     CLOUDY    66  54  65 SE6       30.03R
OLATHE EXE     CLOUDY    65  53  65 S6        30.02R
SALINA         MOCLDY    63  56  78 SE7       29.97R
TOPEKA BILLARD LGT RAIN  66  56  70 CALM      30.01R
TOPEKA FORBES  CLOUDY    65  55  70 SE6       30.01R
$$



USA.gov is the U.S. government's official web portal to all federal, state and local government web resources and services.